Bowling Green, KY

2:57 PM CDT on September 24, 2017 (GMT -0500)
Bowling Green-Warren County Regional

Weather History for KBWG - June, 2014

Change the Weather History Date:

Friday, June 13, 2014

  Actual Average Record
Temperature  
Mean Temperature 68 °F 75 °F  
Max Temperature 79 °F 86 °F 100 °F (1894)
Min Temperature 57 °F 63 °F 39 °F (1903)
Degree Days  
Heating Degree Days 0 0  
Month to date heating degree days 0 3  
Since 1 June heating degree days 0 3  
Since 1 July heating degree days 4533 4046  
Cooling Degree Days 3 10  
Month to date cooling degree days 112 107  
Year to date cooling degree days 309 260  
Since 1 June cooling degree days 112 107  
Growing Degree Days 20 (Base 50)    
Moisture  
Dew Point 60 °F    
Average Humidity 64    
Maximum Humidity 87    
Minimum Humidity 41    
Precipitation  
Precipitation 0.01 in 0.14 in 2.65 in (1969)
Month to date precipitation 1.31 1.92  
Year to date precipitation 21.89 23.85  
Snow  
Snow 0.00 in 0.00 in 0.00 in ()
Month to date snowfall 0.0 0.0  
Since 1 June snowfall 0.0 0.0  
Since 1 July snowfall 10.4 9.1  
Snow Depth 0.00 in    
Sea Level Pressure  
Sea Level Pressure 29.94 in    
Wind  
Wind Speed 5 mph (North)    
Max Wind Speed 12 mph    
Max Gust Speed 16 mph    
Visibility 10 miles    
Events Rain    
T = Trace of Precipitation, MM = Missing Value Source: NWS Daily Summary

Daily Weather History Graph

Daily Weather History Graph

Search for Another Location

Airport or City:

Trip Planner

Search our weather history database for the weather conditions in past years. The results will help you decide how hot, cold, wet, or windy it might be!

Date:

Astronomy

Jun. 13, 2014 Rise Set
Actual Time 5:25 AM CDT 8:06 PM CDT
Civil Twilight 4:54 AM CDT 8:36 PM CDT
Nautical Twilight 4:16 AM CDT 9:15 PM CDT
Astronomical Twilight 3:33 AM CDT 9:58 PM CDT
Moon 8:38 PM CDT (6/13) 6:02 AM CDT (6/13)
Length of Visible Light 15h 42m
Length of Day
14h 40m
Full, 100% of the Moon is Illuminated
Jun 13
Full
Jun 19
Last Quarter
Jun 27
New
Jul 5
First Quarter
Jul 12
Full

Hourly Weather History & Observations

Time (CDT) Temp. Dew Point Humidity Pressure Visibility Wind Dir Wind Speed Gust Speed Precip Events Conditions
12:53 AM 68.0 °F 64.0 °F 87% 29.86 in 10.0 mi Calm Calm - N/A   Clear
1:53 AM 69.1 °F 64.9 °F 87% 29.86 in 10.0 mi Calm Calm - N/A   Overcast
2:53 AM 69.1 °F 64.9 °F 87% 29.86 in 10.0 mi Calm Calm - N/A   Mostly Cloudy
3:53 AM 68.0 °F 64.9 °F 90% 29.86 in 9.0 mi Calm Calm - N/A   Partly Cloudy
4:53 AM 69.1 °F 64.9 °F 87% 29.86 in 9.0 mi Calm Calm - N/A   Mostly Cloudy
5:53 AM 69.1 °F 64.9 °F 87% 29.89 in 9.0 mi NW 3.5 mph - 0.00 in   Mostly Cloudy
6:53 AM 69.1 °F 64.9 °F 87% 29.91 in 7.0 mi NW 5.8 mph - 0.00 in Rain Light Rain
7:24 AM 69.1 °F 64.0 °F 84% 29.93 in 10.0 mi NW 8.1 mph - 0.00 in   Overcast
7:44 AM 69.1 °F 64.0 °F 84% 29.93 in 10.0 mi NNW 6.9 mph - 0.00 in   Overcast
7:53 AM 68.0 °F 64.0 °F 87% 29.93 in 10.0 mi NNW 6.9 mph - 0.00 in   Overcast
8:53 AM 68.0 °F 62.1 °F 81% 29.94 in 10.0 mi North 6.9 mph - N/A   Overcast
9:50 AM 66.2 °F 62.6 °F 88% 29.96 in 10.0 mi North 6.9 mph - N/A   Overcast
10:46 AM 70.0 °F 61.0 °F 73% 29.97 in 10.0 mi NNE 8.1 mph - N/A   Mostly Cloudy
10:53 AM 70.0 °F 62.1 °F 76% 29.96 in 10.0 mi NNE 5.8 mph - N/A   Overcast
11:34 AM 70.0 °F 63.0 °F 78% 29.97 in 9.0 mi Variable 5.8 mph - 0.01 in Rain Light Rain
12:53 PM 73.9 °F 62.1 °F 66% 29.96 in 10.0 mi NE 10.4 mph - N/A   Mostly Cloudy
1:53 PM 73.9 °F 61.0 °F 64% 29.95 in 10.0 mi North 8.1 mph - N/A   Overcast
2:53 PM 75.9 °F 59.0 °F 56% 29.94 in 10.0 mi NNE 6.9 mph - N/A   Overcast
6:53 PM 75.9 °F 53.1 °F 45% 29.96 in 10.0 mi North 5.8 mph - N/A   Clear
7:53 PM 72.0 °F 46.9 °F 41% 29.97 in 10.0 mi NNW 4.6 mph - N/A   Clear
8:53 PM 69.1 °F 48.9 °F 49% 29.99 in 10.0 mi Calm Calm - N/A   Clear
9:53 PM 66.9 °F 48.9 °F 52% 30.01 in 10.0 mi NNW 3.5 mph - N/A   Clear
10:53 PM 64.9 °F 51.1 °F 61% 30.02 in 10.0 mi Calm Calm - N/A   Clear
11:53 PM 61.0 °F 51.1 °F 70% 30.03 in 10.0 mi Calm Calm - N/A   Clear